CZ-4C R/B, 57491

Orbit data source: Space-Track

CZ-4C R/B, 57491 is space debris in SSO originally from a launch on Thu, 03 Aug 2023 UTC launched from the Jiuquan Satellite Launch Center, China (JSC). Debris objects in space refer to the collection of defunct objects orbiting the Earth. Examples of debris include non-operational satellites, rocket bodies, and fragments generated from explosions, collisions, or faulty payload assembly.

Loading next visibility...
Identifier
57491, 2023-111B
Orbit
SSO
Country
Flag of CNCN / PRC
Related business
Manufacturer
SAST
Mission
Spacecraft
Bus & Motor
CZ-4 STAGE 3, Unknown motor
Mass
~1,000 kg wet, ~1,000 kg dry
Launch date (UTC)
2023-08-03 (3 years ago)
Launch vehicle
Unknown
Launch site
Jiuquan Satellite Launch Center, China (JSC)
Object type
Payload
Rocket body
Debris
Shape & HBR
Cyl, 2.5 m
Radar Cross Section
14.536 m², Large (>1 m²)

Expand to show TLE details & history
Last TLE update: 10 hours ago

TLE from 10 hours ago
0 CZ-4C R/B
1 57491U 23111B   26237.35979981  .00000395  00000-0  88940-4 0  9995
2 57491  98.8340  19.9474 0135612 236.1923 122.6301 14.57301472162747
Epoch: 2026-08-25T08:38Z
TLE epoch observation values (Epoch: 2026-08-25T08:38:06.703Z)
Latitude
-0.00003°
Longitude
-83.2088°
Altitude
757.558 km
Speed
7.448 km/s
True Right ascension
01h 19m 47s
True Declination
0° 00' 00"
Sunlit
Object was in full shadow at epoch
Visualization orbit readout
Latitude
Unknown
Longitude
Unknown
Altitude
Unknown
Speed
Unknown
Apparent Right ascension
Unknown
Apparent Declination
Unknown
Sunlit
N/A
Visualization observer readout
Local Sidereal Time
09:48:06
Azimuth
Unknown
Elevation
Unknown
Doppler factor
Unknown
Orbital elements
Apogee altitude
794.99 km
Perigee altitude
603.04 km
Semi-major axis
7,077.152 km
Eccentricity
0.01356
Inclination
98.834°
RAAN
19.9474°
Arg. of periapsis
236.1923°
True anomaly
123.92686°
Mean anomaly
122.6301°
Eccentric anomaly
123.27967°
Mean motion
3.64549 °/min
Orbital period
98.75 mins
BSTAR
0.00008894
Loading maneuver chart data...
Computing Atmospheric mass density...
Loading historical data...
Loading historical data...
Loading historical data...
Loading historical data...
Loading historical data...
Loading historical data...
Loading historical data...
Other satellites on launch #111 in the year 2023 (2023-08-03 UTC)

Documentation

Showing up to 5 results
|